{"data":{"norad_id":58983,"epoch":"2026-09-20T22:39:21.748608Z","epoch_age_seconds":117310,"freshness":"FRESH","line1":"1 58983U 24031U   26263.94400172 -.00001263  00000+0 -26257-4 0  9998","line2":"2 58983  53.1593 105.7734 0001036 110.8018 249.3096 15.34389981146462","mean_motion":15.34389981,"eccentricity":0.0001036,"inclination_deg":53.1593,"raan_deg":105.7734,"arg_perigee_deg":110.8018,"mean_anomaly_deg":249.3096,"bstar":-2.6257e-5,"rev_number":14646,"period_min":93.848370872542,"perigee_km":462.02430481459,"apogee_km":463.44173308251,"semimajor_km":6840.8700189485,"source":"CELESTRAK","updated_at":"2026-09-21T09:00:34.022169Z"}}